^^
Station Historical Data
Daily Summary for January 7, 2018 Units:  Metric    English   Both
« Previous Day
Next Day »
Daily Weekly Monthly Yearly Custom
  High: Low: Average:
Temperature: -17.8 °C 19.9 °C 25.4 °C
Dew Point: -17.8 °C 3.3 °C 6.4 °C
Humidity: Humidity% 17% 31%
Wind Speed: 0km/h 0km/h 7.7km/h
Wind Gust: 0km/h - -
Wind- - SSE
Pressure: 0 hPa 1016.8 hPa -
Precipitation: 1.02 mm    
Historical Graphs
 
 
Tabular Data for January 7, 2018
Time Temperature Dew Point Pressure Wind Wind Speed Wind Gust Humidity Rainfall Rate (Hourly) solar Conditions
-17.8 °C -17.8 °C 0 hPa Calm     Humidity% 0 mm SolarRadiationWatts/m^2 W/m2 Conditions
00:00 25.2 °C 6.9 °C 1018.8 hPa WSW 1.4 km/h 11.3 km/h 31% 0 mm 0.0 W/m2
00:05 25.1 °C 6.8 °C 1018.8 hPa SW 4.7 km/h 4.8 km/h 31% 0 mm 0.0 W/m2
00:10 25 °C 6.7 °C 1018.8 hPa WSW 1.4 km/h 3.2 km/h 31% 0 mm 0.0 W/m2
00:13 24.9 °C 7.1 °C 1018.8 hPa Calm   4.8 km/h 32% 0 mm 0.0 W/m2
00:18 24.8 °C 7 °C 1018.8 hPa SSE 3.2 km/h 8 km/h 32% 0 mm 0.0 W/m2
00:23 24.7 °C 6.9 °C 1018.8 hPa SE 6.4 km/h 6.4 km/h 32% 0 mm 0.0 W/m2
00:29 24.7 °C 6.9 °C 1018.8 hPa SSE 11.1 km/h 14.5 km/h 32% 0 mm 0.0 W/m2
00:35 24.6 °C 6.3 °C 1018.8 hPa South 4.7 km/h 11.3 km/h 31% 0 mm 0.0 W/m2
00:40 24.7 °C 6.4 °C 1018.5 hPa Calm   6.4 km/h 31% 0 mm 0.0 W/m2
00:42 24.7 °C 6.4 °C 1018.8 hPa SSW 7.9 km/h 8 km/h 31% 0 mm 0.0 W/m2
00:46 24.7 °C 6.4 °C 1018.5 hPa SSE 11.1 km/h 11.3 km/h 31% 0 mm 0.0 W/m2
00:52 24.7 °C 6.4 °C 1018.5 hPa SE 3.2 km/h 19.3 km/h 31% 0 mm 0.0 W/m2
00:57 24.8 °C 6.5 °C 1018.5 hPa SSE 6.4 km/h 11.3 km/h 31% 0 mm 0.0 W/m2
01:02 24.8 °C 6.5 °C 1018.5 hPa South 1.4 km/h 16.1 km/h 31% 0 mm 0.0 W/m2
01:07 24.8 °C 6.5 °C 1018.2 hPa SE 9.7 km/h 11.3 km/h 31% 0 mm 0.0 W/m2
01:12 24.8 °C 6.5 °C 1018.2 hPa SSE 3.2 km/h 22.5 km/h 31% 0 mm 0.0 W/m2
01:14 24.8 °C 6.5 °C 1018.2 hPa SSW 6.4 km/h 16.1 km/h 31% 0 mm 0.0 W/m2
01:19 24.8 °C 6.5 °C 1018.2 hPa SSW 4.7 km/h 14.5 km/h 31% 0 mm 0.0 W/m2
01:24 24.8 °C 6.5 °C 1018.2 hPa SSW 7.9 km/h 19.3 km/h 31% 0 mm 0.0 W/m2
01:30 24.8 °C 6.5 °C 1018.2 hPa SE 7.9 km/h 27.4 km/h 31% 0 mm 0.0 W/m2
01:37 24.8 °C 6.5 °C 1017.8 hPa ESE 7.9 km/h 17.7 km/h 31% 0 mm 0.0 W/m2
01:44 24.7 °C 6.4 °C 1017.8 hPa SSE 13 km/h 16.1 km/h 31% 0 mm 0.0 W/m2
01:49 24.7 °C 6.4 °C 1017.8 hPa SSW 7.9 km/h 19.3 km/h 31% 0 mm 0.0 W/m2
01:55 24.7 °C 6.4 °C 1017.8 hPa South 4.7 km/h 19.3 km/h 31% 0 mm 0.0 W/m2
02:01 24.7 °C 6.4 °C 1017.5 hPa South 7.9 km/h 12.9 km/h 31% 0 mm 0.0 W/m2
02:07 24.6 °C 6.8 °C 1017.5 hPa ESE 19.5 km/h 20.9 km/h 32% 0 mm 0.0 W/m2
02:14 24.6 °C 6.8 °C 1017.5 hPa SSE 6.4 km/h 19.3 km/h 32% 0 mm 0.0 W/m2
02:19 24.6 °C 6.8 °C 1017.5 hPa SE 13 km/h 19.3 km/h 32% 0 mm 0.0 W/m2
02:24 24.5 °C 6.7 °C 1017.5 hPa SSE 7.9 km/h 24.1 km/h 32% 0 mm 0.0 W/m2
02:29 24.4 °C 6.6 °C 1017.5 hPa SSE 3.2 km/h 20.9 km/h 32% 0 mm 0.0 W/m2
02:34 24.4 °C 6.6 °C 1017.5 hPa ESE 14.3 km/h 24.1 km/h 32% 0 mm 0.0 W/m2
02:39 24.4 °C 6.6 °C 1017.5 hPa ESE 6.4 km/h 17.7 km/h 32% 0 mm 0.0 W/m2
02:46 24.3 °C 6.5 °C 1017.5 hPa SSE 7.9 km/h 24.1 km/h 32% 0 mm 0.0 W/m2
02:52 24.2 °C 6.9 °C 1017.2 hPa SE 11.1 km/h 20.9 km/h 33% 0 mm 0.0 W/m2
02:58 24.1 °C 6.8 °C 1017.2 hPa SSW 7.9 km/h 12.9 km/h 33% 0 mm 0.0 W/m2
03:05 24 °C 6.7 °C 1017.2 hPa SSE 7.9 km/h 12.9 km/h 33% 0 mm 0.0 W/m2
03:10 23.9 °C 7.1 °C 1017.2 hPa SE 13 km/h 14.5 km/h 34% 0 mm 0.0 W/m2
03:15 23.8 °C 7 °C 1017.2 hPa ESE 3.2 km/h 14.5 km/h 34% 0 mm 0.0 W/m2
03:16 23.8 °C 7 °C 1017.2 hPa SSW 4.7 km/h 22.5 km/h 34% 0 mm 0.0 W/m2
03:21 23.8 °C 7 °C 1017.2 hPa SSE 6.4 km/h 16.1 km/h 34% 0 mm 0.0 W/m2
03:29 23.7 °C 6.9 °C 1017.2 hPa SSE 6.4 km/h 12.9 km/h 34% 0 mm 0.0 W/m2
03:30 23.7 °C 6.9 °C 1017.2 hPa SW 6.4 km/h 12.9 km/h 34% 0 mm 0.0 W/m2
03:34 23.6 °C 6.8 °C 1017.2 hPa SE 6.4 km/h 12.9 km/h 34% 0 mm 0.0 W/m2
03:41 23.6 °C 6.8 °C 1017.2 hPa SE 7.9 km/h 11.3 km/h 34% 0 mm 0.0 W/m2
03:46 23.5 °C 7.2 °C 1017.2 hPa SE 4.7 km/h 19.3 km/h 35% 0 mm 0.0 W/m2
03:51 23.4 °C 7.1 °C 1017.2 hPa SSE 13 km/h 14.5 km/h 35% 0 mm 0.0 W/m2
03:58 23.4 °C 7.1 °C 1017.2 hPa South 11.1 km/h 22.5 km/h 35% 0 mm 0.0 W/m2
04:03 23.4 °C 7.5 °C 1017.2 hPa SSE 3.2 km/h 9.7 km/h 36% 0 mm 0.0 W/m2
04:08 23.4 °C 7.5 °C 1017.2 hPa East 1.4 km/h 16.1 km/h 36% 0 mm 0.0 W/m2
04:13 23.4 °C 7.5 °C 1017.2 hPa SSE 6.4 km/h 22.5 km/h 36% 0 mm 0.0 W/m2
04:19 23.3 °C 7.4 °C 1017.2 hPa SE 7.9 km/h 11.3 km/h 36% 0 mm 0.0 W/m2
04:24 23.3 °C 7.4 °C 1017.2 hPa Calm   20.9 km/h 36% 0 mm 0.0 W/m2
04:29 23.3 °C 7.4 °C 1017.2 hPa South 7.9 km/h 17.7 km/h 36% 0 mm 0.0 W/m2
04:34 23.3 °C 7.4 °C 1017.2 hPa ESE 9.7 km/h 12.9 km/h 36% 0 mm 0.0 W/m2
04:41 23.4 °C 7.5 °C 1017.2 hPa SE 6.4 km/h 17.7 km/h 36% 0 mm 0.0 W/m2
04:46 23.4 °C 7.5 °C 1017.2 hPa SSE 11.1 km/h 17.7 km/h 36% 0 mm 0.0 W/m2
04:51 23.4 °C 7.1 °C 1017.2 hPa South 9.7 km/h 24.1 km/h 35% 0 mm 0.0 W/m2
04:57 23.4 °C 7.1 °C 1017.2 hPa SSE 4.7 km/h 16.1 km/h 35% 0 mm 0.0 W/m2
04:58 23.4 °C 7.1 °C 1017.2 hPa SSW 14.3 km/h 14.5 km/h 35% 0 mm 0.0 W/m2
05:03 23.5 °C 7.2 °C 1017.5 hPa SSW 3.2 km/h 20.9 km/h 35% 0 mm 0.0 W/m2
05:08 23.5 °C 7.2 °C 1017.5 hPa South 6.4 km/h 17.7 km/h 35% 0 mm 0.0 W/m2
05:13 23.5 °C 7.2 °C 1017.5 hPa SSE 6.4 km/h 12.9 km/h 35% 0 mm 0.0 W/m2
05:18 23.4 °C 7.5 °C 1017.5 hPa ENE 1.4 km/h 19.3 km/h 36% 0 mm 0.0 W/m2
05:24 23.4 °C 7.5 °C 1017.5 hPa SSE 11.1 km/h 22.5 km/h 36% 0 mm 0.0 W/m2
05:30 23.3 °C 7.4 °C 1017.5 hPa South 3.2 km/h 9.7 km/h 36% 0 mm 0.0 W/m2
05:35 23.3 °C 7.4 °C 1017.5 hPa SSE 7.9 km/h 16.1 km/h 36% 0 mm 0.0 W/m2
05:40 23.2 °C 7.3 °C 1017.5 hPa South 4.7 km/h 8 km/h 36% 0 mm 0.0 W/m2
05:43 23.2 °C 7.3 °C 1017.5 hPa SSE 17.7 km/h 19.3 km/h 36% 0 mm 0.0 W/m2
05:47 23.2 °C 7.7 °C 1017.8 hPa SSW 1.4 km/h 17.7 km/h 37% 0 mm 0.0 W/m2
05:52 23.2 °C 7.3 °C 1017.8 hPa SSW 3.2 km/h 27.4 km/h 36% 0 mm 0.0 W/m2
05:53 23.2 °C 7.3 °C 1017.8 hPa SE 16.3 km/h 27.4 km/h 36% 0 mm 0.0 W/m2
05:58 23.2 °C 7.3 °C 1017.8 hPa WSW 11.1 km/h 11.3 km/h 36% 0 mm 0.0 W/m2
06:03 23.2 °C 7.3 °C 1017.8 hPa SSE 9.7 km/h 12.9 km/h 36% 0 mm 0.0 W/m2
06:08 23.2 °C 6.9 °C 1017.8 hPa WSW 3.2 km/h 12.9 km/h 35% 0 mm 0.0 W/m2
06:15 23.2 °C 6.9 °C 1017.8 hPa South 13 km/h 17.7 km/h 35% 0 mm 0.0 W/m2
06:22 23.2 °C 6.9 °C 1017.8 hPa WSW 4.7 km/h 12.9 km/h 35% 0 mm 0.0 W/m2
06:27 23.1 °C 6.8 °C 1017.8 hPa SW 13 km/h 17.7 km/h 35% 0 mm 5.0 W/m2
06:32 23.1 °C 7.2 °C 1017.8 hPa SE 6.4 km/h 12.9 km/h 36% 0 mm 7.0 W/m2
06:37 23.1 °C 6.8 °C 1017.8 hPa SSE 4.7 km/h 11.3 km/h 35% 0 mm 14.0 W/m2
06:43 23.1 °C 7.2 °C 1017.8 hPa South 1.4 km/h 16.1 km/h 36% 0 mm 25.0 W/m2
06:44 23.1 °C 6.8 °C 1018.2 hPa SSE 14.3 km/h 20.9 km/h 35% 0 mm 26.0 W/m2
06:48 23.1 °C 6.8 °C 1017.8 hPa Calm   9.7 km/h 35% 0 mm 30.0 W/m2
06:49 23.1 °C 6.8 °C 1017.8 hPa SSE 11.1 km/h 12.9 km/h 35% 0 mm 30.0 W/m2
06:53 23.2 °C 6.9 °C 1018.2 hPa SSE 1.4 km/h 16.1 km/h 35% 0 mm 35.0 W/m2
06:59 23.2 °C 6.9 °C 1018.2 hPa SE 4.7 km/h 16.1 km/h 35% 0 mm 37.0 W/m2
07:04 23.3 °C 7 °C 1018.2 hPa SE 11.1 km/h 12.9 km/h 35% 0 mm 42.0 W/m2
07:10 23.3 °C 7 °C 1018.2 hPa South 9.7 km/h 14.5 km/h 35% 0 mm 42.0 W/m2
07:15 23.4 °C 7.1 °C 1018.2 hPa South 4.7 km/h 24.1 km/h 35% 0 mm 53.0 W/m2
07:22 23.4 °C 7.1 °C 1018.2 hPa SSE 4.7 km/h 22.5 km/h 35% 0 mm 72.0 W/m2
07:25 23.6 °C 6.8 °C 1018.2 hPa South 11.1 km/h 14.5 km/h 34% 0 mm 83.0 W/m2
07:27 23.6 °C 6.8 °C 1018.2 hPa South 4.7 km/h 17.7 km/h 34% 0 mm 86.0 W/m2
07:32 23.7 °C 6.9 °C 1018.2 hPa SSE 22.7 km/h 22.7 km/h 34% 0 mm 90.0 W/m2
07:38 23.8 °C 7 °C 1018.2 hPa SE 7.9 km/h 16.1 km/h 34% 0 mm 91.0 W/m2
07:42 23.9 °C 7.1 °C 1018.2 hPa South 9.7 km/h 16.1 km/h 34% 0 mm 121.0 W/m2
07:47 24.2 °C 7.3 °C 1018.2 hPa SSE 6.4 km/h 24.1 km/h 34% 0 mm 165.0 W/m2
07:52 24.5 °C 7.2 °C 1018.2 hPa SE 9.7 km/h 14.5 km/h 33% 0 mm 313.0 W/m2
07:59 24.9 °C 7.1 °C 1018.5 hPa SE 14.3 km/h 24.1 km/h 32% 0 mm 381.0 W/m2
08:04 25.2 °C 7.3 °C 1018.5 hPa SSW 1.4 km/h 17.7 km/h 32% 0 mm 503.0 W/m2
08:09 25.4 °C 7.5 °C 1018.5 hPa South 3.2 km/h 9.7 km/h 32% 0 mm 269.0 W/m2
08:11 25.5 °C 7.1 °C 1018.5 hPa South 16.3 km/h 25.7 km/h 31% 0 mm 323.0 W/m2
08:14 25.6 °C 7.2 °C 1018.5 hPa South 11.1 km/h 17.7 km/h 31% 0 mm 561.0 W/m2
08:16 25.7 °C 7.3 °C 1018.5 hPa ESE 9.7 km/h 20.9 km/h 31% 0 mm 591.0 W/m2
08:21 26 °C 7.1 °C 1018.8 hPa South 3.2 km/h 22.5 km/h 30% 0 mm 624.0 W/m2
08:26 26.4 °C 7.4 °C 1018.8 hPa South 4.7 km/h 17.7 km/h 30% 0 mm 601.0 W/m2
08:32 26.3 °C 6.8 °C 1018.8 hPa SSW 13 km/h 20.9 km/h 29% 0 mm 250.0 W/m2
08:37 26.1 °C 6.7 °C 1018.5 hPa SE 20.9 km/h 27.4 km/h 29% 0 mm 316.0 W/m2
08:43 26.1 °C 6.7 °C 1018.8 hPa ESE 7.9 km/h 16.1 km/h 29% 0 mm 512.0 W/m2
08:48 26.2 °C 7.3 °C 1018.8 hPa South 3.2 km/h 17.7 km/h 30% 0 mm 573.0 W/m2
08:53 26.4 °C 6.9 °C 1018.8 hPa SSW 6.4 km/h 20.9 km/h 29% 0 mm 220.0 W/m2
09:02 26.2 °C 6.2 °C 1018.5 hPa SE 7.9 km/h 16.1 km/h 28% 0 mm 214.0 W/m2
09:03 26.2 °C 6.8 °C 1018.5 hPa SSW 11.1 km/h 20.9 km/h 29% 0 mm 214.0 W/m2
09:08 26.1 °C 6.2 °C 1018.8 hPa SSE 4.7 km/h 12.9 km/h 28% 0 mm 548.0 W/m2
09:15 26.3 °C 6.3 °C 1018.5 hPa SSW 6.4 km/h 19.3 km/h 28% 0 mm 213.0 W/m2
09:20 26.4 °C 5.9 °C 1018.8 hPa South 4.7 km/h 27.4 km/h 27% 0 mm 179.0 W/m2
09:22 26.4 °C 6.4 °C 1018.8 hPa SSE 1.4 km/h 8 km/h 28% 0 mm 179.0 W/m2
09:25 26.6 °C 5 °C 1018.8 hPa SSE 20.9 km/h 24.1 km/h 25% 0 mm 735.0 W/m2
09:32 27.2 °C 5.5 °C 1018.8 hPa SSE 14.3 km/h 24.1 km/h 25% 0 mm 740.0 W/m2
09:34 27.3 °C 5.5 °C 1018.8 hPa SE 20.9 km/h 24.1 km/h 25% 0 mm 742.0 W/m2
09:38 27.6 °C 5.2 °C 1018.8 hPa SSW 6.4 km/h 17.7 km/h 24% 0 mm 751.0 W/m2
09:40 27.7 °C 4.7 °C 1018.8 hPa SSW 6.4 km/h 14.5 km/h 23% 0 mm 615.0 W/m2
09:46 27.8 °C 4.1 °C 1018.8 hPa SSE 16.3 km/h 24.1 km/h 22% 0 mm 633.0 W/m2
09:52 27.8 °C 4.1 °C 1018.8 hPa SE 11.1 km/h 16.1 km/h 22% 0 mm 364.0 W/m2
09:57 27.7 °C 4 °C 1018.8 hPa SSW 6.4 km/h 16.1 km/h 22% 0 mm 403.0 W/m2
10:03 27.7 °C 4 °C 1018.8 hPa South 3.2 km/h 20.9 km/h 22% 0 mm 494.0 W/m2
10:04 27.7 °C 4.7 °C 1018.8 hPa SW 4.7 km/h 16.1 km/h 23% 0 mm 471.0 W/m2
10:08 27.9 °C 4.2 °C 1018.8 hPa SSW 7.9 km/h 17.7 km/h 22% 0 mm 501.0 W/m2
10:10 28.1 °C 4.4 °C 1018.8 hPa SSE 13 km/h 20.9 km/h 22% 0 mm 501.0 W/m2
10:15 28.2 °C 4.5 °C 1018.8 hPa South 11.1 km/h 16.1 km/h 22% 0 mm 410.0 W/m2
10:20 28.1 °C 4.4 °C 1018.8 hPa SE 4.7 km/h 19.3 km/h 22% 0 mm 311.0 W/m2
10:22 28.1 °C 4.4 °C 1018.8 hPa SW 4.7 km/h 16.1 km/h 22% 0 mm 348.0 W/m2
10:28 28.5 °C 4.7 °C 1018.8 hPa ESE 6.4 km/h 25.7 km/h 22% 0 mm 949.0 W/m2
10:30 28.6 °C 4.8 °C 1018.8 hPa SSE 19.5 km/h 25.7 km/h 22% 0 mm 940.0 W/m2
10:36 29.2 °C 4.6 °C 1018.8 hPa SSE 6.4 km/h 16.1 km/h 21% 0 mm 902.0 W/m2
10:39 29.5 °C 4.9 °C 1018.8 hPa SE 1.4 km/h 16.1 km/h 21% 0 mm 904.0 W/m2
10:41 29.7 °C 4.3 °C 1018.8 hPa SSE 7.9 km/h 11.3 km/h 20% 0 mm 909.0 W/m2
10:44 29.5 °C 4.9 °C 1018.8 hPa SE 1.4 km/h 16.1 km/h 21% 0 mm 904.0 W/m2
10:49 30 °C 4.6 °C 1018.8 hPa SSW 6.4 km/h 16.1 km/h 20% 0 mm 928.0 W/m2
10:54 30.1 °C 4.7 °C 1018.8 hPa SSE 9.7 km/h 19.3 km/h 20% 0 mm 937.0 W/m2
11:00 30.5 °C 4.3 °C 1018.8 hPa ESE 11.1 km/h 24.1 km/h 19% 0 mm 951.0 W/m2
11:06 30.8 °C 4.5 °C 1018.8 hPa SSE 11.1 km/h 16.1 km/h 19% 0 mm 970.0 W/m2
11:11 31.1 °C 4.8 °C 1018.8 hPa SSW 4.7 km/h 24.1 km/h 19% 0 mm 1032.0 W/m2
11:16 31.2 °C 4.1 °C 1018.5 hPa ESE 19.5 km/h 19.5 km/h 18% 0 mm 958.0 W/m2
11:22 31.1 °C 4.8 °C 1018.5 hPa ESE 11.1 km/h 19.3 km/h 19% 0 mm 1107.0 W/m2
11:27 30.9 °C 4.6 °C 1018.5 hPa East 17.7 km/h 20.9 km/h 19% 0 mm 373.0 W/m2
11:33 30.9 °C 4.6 °C 1018.5 hPa ESE 6.4 km/h 14.5 km/h 19% 0 mm 1264.0 W/m2
11:38 31.2 °C 4.8 °C 1018.5 hPa SSE 16.3 km/h 22.5 km/h 19% 0 mm 1148.0 W/m2
11:43 31.3 °C 4.1 °C 1018.5 hPa SE 14.3 km/h 19.3 km/h 18% 0 mm 1197.0 W/m2
11:48 31.2 °C 4.1 °C 1018.2 hPa SE 6.4 km/h 20.9 km/h 18% 0 mm 1197.0 W/m2
11:53 31.2 °C 4.8 °C 1018.2 hPa South 6.4 km/h 12.9 km/h 19% 0 mm 394.0 W/m2
11:55 31.3 °C 4.1 °C 1018.2 hPa East 3.2 km/h 14.5 km/h 18% 0 mm 1197.0 W/m2
12:00 31.1 °C 4.8 °C 1018.2 hPa SE 14.3 km/h 14.5 km/h 19% 0 mm 302.0 W/m2
12:06 30.8 °C 4.5 °C 1018.2 hPa SSW 4.7 km/h 9.7 km/h 19% 0 mm 297.0 W/m2
12:11 30.9 °C 5.3 °C 1018.2 hPa SE 3.2 km/h 14.5 km/h 20% 0 mm 1274.0 W/m2
12:16 31.2 °C 4.8 °C 1018.2 hPa SSE 6.4 km/h 9.7 km/h 19% 0 mm 1174.0 W/m2
12:21 31.5 °C 5.1 °C 1017.8 hPa SE 9.7 km/h 19.3 km/h 19% 0 mm 1141.0 W/m2
12:22 31.6 °C 4.4 °C 1017.8 hPa Calm   19.3 km/h 18% 0 mm 1151.0 W/m2
12:29 32 °C 3.9 °C 1018.2 hPa South 7.9 km/h 16.1 km/h 17% 0 mm 1229.0 W/m2
12:34 31.9 °C 4.6 °C 1017.8 hPa SSW 1.4 km/h 6.4 km/h 18% 0 mm 1167.0 W/m2
12:40 32.1 °C 4 °C 1017.8 hPa WSW 4.7 km/h 4.8 km/h 17% 0 mm 1176.0 W/m2
12:43 32 °C 3.9 °C 1017.8 hPa SSW 6.4 km/h 11.3 km/h 17% 0 mm 1204.0 W/m2
12:54 32.4 °C 4.2 °C 1017.5 hPa ESE 4.7 km/h 8 km/h 17% 0 mm 232.0 W/m2
12:59 32.2 °C 4.1 °C 1017.5 hPa South 6.4 km/h 20.9 km/h 17% 0 mm 199.0 W/m2
13:09 31.4 °C 4.2 °C 1017.5 hPa SW 1.4 km/h 9.7 km/h 18% 0 mm 181.0 W/m2
13:10 31.4 °C 4.2 °C 1017.5 hPa SE 11.1 km/h 11.3 km/h 18% 0 mm 179.0 W/m2
13:15 31.2 °C 4.8 °C 1017.5 hPa ESE 6.4 km/h 9.7 km/h 19% 0 mm 155.0 W/m2
13:20 30.6 °C 6.5 °C 1017.5 hPa ESE 7.9 km/h 9.7 km/h 22% 0 mm 132.0 W/m2
13:25 29.8 °C 6.4 °C 1017.8 hPa SSE 4.7 km/h 14.5 km/h 23% 0 mm 128.0 W/m2
13:30 29.1 °C 12.5 °C 1018.5 hPa West 1.4 km/h 16.1 km/h 36% 0.51 mm 139.0 W/m2
13:36 27.1 °C 12.7 °C 1017.8 hPa Calm   8 km/h 41% 1.02 mm 162.0 W/m2
13:45 25.2 °C 11.7 °C 1017.2 hPa Calm   1.6 km/h 43% 1.02 mm 374.0 W/m2
13:46 25.1 °C 12 °C 1017.5 hPa North 6.4 km/h 6.4 km/h 44% 1.02 mm 432.0 W/m2
13:48 24.8 °C 13.7 °C 1017.5 hPa NE 3.2 km/h 4.8 km/h 50% 1.02 mm 316.0 W/m2
13:51 24.6 °C 11.2 °C 1017.8 hPa NE 6.4 km/h 11.3 km/h 43% 1.02 mm 244.0 W/m2
13:56 24.5 °C 9.2 °C 1017.8 hPa SE 4.7 km/h 12.9 km/h 38% 1.02 mm 209.0 W/m2
14:01 24.8 °C 7.4 °C 1017.8 hPa ESE 4.7 km/h 20.9 km/h 33% 1.02 mm 230.0 W/m2
14:07 25.2 °C 6.9 °C 1017.8 hPa NNE 4.7 km/h 14.5 km/h 31% 1.02 mm 251.0 W/m2
14:12 25.6 °C 5.7 °C 1017.8 hPa NNE 4.7 km/h 16.1 km/h 28% 1.02 mm 214.0 W/m2
14:18 25.7 °C 6.3 °C 1018.2 hPa NE 11.1 km/h 17.7 km/h 29% 1.02 mm 206.0 W/m2
14:23 26.6 °C 5.5 °C 1018.2 hPa NE 11.1 km/h 14.5 km/h 26% 1.02 mm 163.0 W/m2
14:29 26.8 °C 5.7 °C 1018.5 hPa SSE 1.4 km/h 11.3 km/h 26% 0.51 mm 178.0 W/m2
14:35 27 °C 5.3 °C 1018.2 hPa ESE 16.3 km/h 20.9 km/h 25% 0 mm 223.0 W/m2
14:42 27.3 °C 6.1 °C 1018.5 hPa WSW 4.7 km/h 8 km/h 26% 0 mm 406.0 W/m2
14:47 27.4 °C 7.3 °C 1018.2 hPa SW 3.2 km/h 22.5 km/h 28% 0 mm 404.0 W/m2
14:53 27.3 °C 7.2 °C 1018.2 hPa South 3.2 km/h 12.9 km/h 28% 0 mm 631.0 W/m2
14:58 27.5 °C 6.8 °C 1017.8 hPa West 16.3 km/h 19.3 km/h 27% 0 mm 308.0 W/m2
15:04 27.6 °C 6.4 °C 1017.8 hPa WSW 6.4 km/h 19.3 km/h 26% 0 mm 394.0 W/m2
15:09 27.9 °C 6.1 °C 1017.8 hPa SW 7.9 km/h 11.3 km/h 25% 0 mm 954.0 W/m2
15:15 28.7 °C 6.1 °C 1017.8 hPa ESE 9.7 km/h 12.9 km/h 24% 0 mm 468.0 W/m2
15:20 29.2 °C 5.3 °C 1017.5 hPa SE 1.4 km/h 9.7 km/h 22% 0 mm 853.0 W/m2
15:21 29.2 °C 5.3 °C 1017.5 hPa NE 3.2 km/h 8 km/h 22% 0 mm 853.0 W/m2
15:27 29.4 °C 5.5 °C 1017.5 hPa SE 1.4 km/h 16.1 km/h 22% 0 mm 276.0 W/m2
15:33 29.4 °C 5.5 °C 1017.5 hPa South 6.4 km/h 9.7 km/h 22% 0 mm 297.0 W/m2
15:38 29.4 °C 6.1 °C 1017.5 hPa Calm   4.8 km/h 23% 0 mm 281.0 W/m2
15:44 29.4 °C 6.1 °C 1017.5 hPa South 1.4 km/h 12.9 km/h 23% 0 mm 265.0 W/m2
15:49 29.3 °C 5.4 °C 1017.5 hPa Calm   4.8 km/h 22% 0 mm 272.0 W/m2
15:55 29.3 °C 6 °C 1017.2 hPa ENE 3.2 km/h 6.4 km/h 23% 0 mm 374.0 W/m2
16:00 29.3 °C 4.7 °C 1017.2 hPa SE 6.4 km/h 11.3 km/h 21% 0 mm 269.0 W/m2
16:05 29.3 °C 4.7 °C 1017.2 hPa SE 6.4 km/h 8 km/h 21% 0 mm 234.0 W/m2
16:10 29.3 °C 4.7 °C 1017.2 hPa SE 7.9 km/h 14.5 km/h 21% 0 mm 311.0 W/m2
16:15 29.7 °C 4.3 °C 1017.2 hPa SE 4.7 km/h 12.9 km/h 20% 0 mm 872.0 W/m2
16:21 30.3 °C 4.8 °C 1017.2 hPa East 1.4 km/h 6.4 km/h 20% 0 mm 315.0 W/m2
16:25 30.7 °C 5.2 °C 1017.2 hPa NNE 1.4 km/h 9.7 km/h 20% 0 mm 900.0 W/m2
16:26 30.7 °C 4.4 °C 1017.2 hPa ESE 7.9 km/h 8 km/h 19% 0 mm 357.0 W/m2
16:31 31.1 °C 4 °C 1017.2 hPa SW 3.2 km/h 3.2 km/h 18% 0 mm 218.0 W/m2
16:37 31.1 °C 4.8 °C 1017.2 hPa Calm   6.4 km/h 19% 0 mm 179.0 W/m2
16:42 30.9 °C 3.8 °C 1017.2 hPa Calm   3.2 km/h 18% 0 mm 156.0 W/m2
16:45 30.8 °C 4.5 °C 1017.2 hPa East 3.2 km/h 8 km/h 19% 0 mm 142.0 W/m2
16:48 30.6 °C 3.6 °C 1017.2 hPa East 4.7 km/h 8 km/h 18% 0 mm 123.0 W/m2
16:54 30.2 °C 3.3 °C 1017.2 hPa SE 6.4 km/h 12.9 km/h 18% 0 mm 100.0 W/m2
16:59 29.9 °C 3.8 °C 1017.2 hPa SSE 6.4 km/h 16.1 km/h 19% 0 mm 104.0 W/m2
17:04 29.8 °C 3.7 °C 1016.8 hPa ESE 6.4 km/h 6.4 km/h 19% 0 mm 118.0 W/m2
17:10 29.6 °C 3.5 °C 1016.8 hPa SE 3.2 km/h 9.7 km/h 19% 0 mm 130.0 W/m2
17:11 29.6 °C 3.5 °C 1016.8 hPa SE 4.7 km/h 9.7 km/h 19% 0 mm 127.0 W/m2
17:23 29.2 °C 5.3 °C 1017.2 hPa ESE 4.7 km/h 22.5 km/h 22% 0 mm 120.0 W/m2
17:29 28.8 °C 5 °C 1017.2 hPa SSW 9.7 km/h 19.3 km/h 22% 0 mm 125.0 W/m2
17:34 28.3 °C 6.4 °C 1017.5 hPa SW 14.3 km/h 30.6 km/h 25% 0 mm 90.0 W/m2
17:40 27.4 °C 6.7 °C 1017.5 hPa SSW 13 km/h 25.7 km/h 27% 0 mm 81.0 W/m2
17:45 26.9 °C 6.8 °C 1017.5 hPa SSW 16.3 km/h 16.3 km/h 28% 0 mm 83.0 W/m2
17:52 26.4 °C 6.9 °C 1017.8 hPa SSW 4.7 km/h 33.8 km/h 29% 0 mm 97.0 W/m2
17:55 26.1 °C 7.2 °C 1017.5 hPa SSE 6.4 km/h 24.1 km/h 30% 0 mm 95.0 W/m2
17:57 26 °C 7.1 °C 1017.8 hPa SE 7.9 km/h 24.1 km/h 30% 0 mm 95.0 W/m2
18:02 25.7 °C 7.3 °C 1017.8 hPa SE 9.7 km/h 16.1 km/h 31% 0 mm 95.0 W/m2
18:08 25.6 °C 7.2 °C 1017.8 hPa SE 20.9 km/h 33.8 km/h 31% 0 mm 100.0 W/m2
18:13 25.3 °C 7.4 °C 1017.8 hPa South 14.3 km/h 35.4 km/h 32% 0 mm 90.0 W/m2
18:18 25.1 °C 7.2 °C 1017.8 hPa SSW 19.5 km/h 24.1 km/h 32% 0 mm 76.0 W/m2
18:25 24.9 °C 7.5 °C 1018.2 hPa SE 9.7 km/h 25.7 km/h 33% 0 mm 44.0 W/m2
18:31 24.7 °C 7.3 °C 1018.2 hPa SSE 3.2 km/h 20.9 km/h 33% 0 mm 37.0 W/m2
18:36 24.6 °C 7.7 °C 1018.2 hPa SE 32 km/h 32.2 km/h 34% 0 mm 33.0 W/m2
18:41 24.5 °C 7.6 °C 1018.5 hPa SSE 4.7 km/h 24.1 km/h 34% 0 mm 21.0 W/m2
18:46 24.4 °C 7.9 °C 1018.5 hPa South 3.2 km/h 24.1 km/h 35% 0 mm 14.0 W/m2
18:51 24.2 °C 7.8 °C 1018.8 hPa South 7.9 km/h 19.3 km/h 35% 0 mm 12.0 W/m2
18:58 24 °C 8 °C 1018.8 hPa SE 20.9 km/h 32.2 km/h 36% 0 mm 12.0 W/m2
19:03 23.9 °C 7.9 °C 1018.8 hPa SSW 4.7 km/h 14.5 km/h 36% 0 mm 16.0 W/m2
19:08 23.8 °C 8.6 °C 1018.8 hPa ESE 7.9 km/h 24.1 km/h 38% 0 mm 14.0 W/m2
19:10 23.7 °C 8.9 °C 1019.2 hPa WSW 22.7 km/h 22.7 km/h 39% 0 mm 12.0 W/m2
19:16 23.4 °C 9 °C 1019.2 hPa SW 13 km/h 30.6 km/h 40% 0 mm 11.0 W/m2
19:23 23.1 °C 8.4 °C 1019.5 hPa SE 13 km/h 16.1 km/h 39% 0 mm 9.0 W/m2
19:26 23.1 °C 8.4 °C 1019.9 hPa South 13 km/h 32.2 km/h 39% 0 mm 5.0 W/m2
19:28 23 °C 8.3 °C 1019.9 hPa SSE 19.5 km/h 25.7 km/h 39% 0 mm 5.0 W/m2
19:33 23 °C 8.3 °C 1019.9 hPa SE 6.4 km/h 19.3 km/h 39% 0 mm 0.0 W/m2
19:36 22.9 °C 8.2 °C 1019.9 hPa SSW 20.9 km/h 33.8 km/h 39% 0 mm 0.0 W/m2
19:38 22.9 °C 8.2 °C 1019.9 hPa SSE 19.5 km/h 29 km/h 39% 0 mm 0.0 W/m2
19:45 22.8 °C 8.1 °C 1019.9 hPa South 13 km/h 25.7 km/h 39% 0 mm 0.0 W/m2
19:49 22.8 °C 8.1 °C 1019.9 hPa SSE 22.7 km/h 29 km/h 39% 0 mm 0.0 W/m2
19:55 22.7 °C 8 °C 1019.9 hPa SSE 16.3 km/h 30.6 km/h 39% 0 mm 0.0 W/m2
20:00 22.7 °C 8 °C 1019.9 hPa SE 25.9 km/h 30.6 km/h 39% 0 mm 0.0 W/m2
20:05 22.7 °C 8 °C 1020.2 hPa SSW 16.3 km/h 27.4 km/h 39% 0 mm 0.0 W/m2
20:11 22.7 °C 8 °C 1020.2 hPa SSE 22.7 km/h 24.1 km/h 39% 0 mm 0.0 W/m2
20:17 22.6 °C 7.9 °C 1020.5 hPa SSE 20.9 km/h 25.7 km/h 39% 0 mm 0.0 W/m2
20:24 22.6 °C 7.9 °C 1020.5 hPa SSE 9.7 km/h 29 km/h 39% 0 mm 0.0 W/m2
20:31 22.6 °C 7.9 °C 1020.9 hPa SSW 17.7 km/h 27.4 km/h 39% 0 mm 0.0 W/m2
20:36 22.6 °C 7.9 °C 1020.5 hPa ESE 17.7 km/h 22.5 km/h 39% 0 mm 0.0 W/m2
20:42 22.6 °C 7.9 °C 1020.9 hPa South 3.2 km/h 16.1 km/h 39% 0 mm 0.0 W/m2
20:49 22.5 °C 7.9 °C 1021.2 hPa SE 16.3 km/h 32.2 km/h 39% 0 mm 0.0 W/m2
20:54 22.5 °C 7.9 °C 1021.6 hPa SE 14.3 km/h 14.5 km/h 39% 0 mm 0.0 W/m2
21:01 22.5 °C 7.9 °C 1021.6 hPa South 20.9 km/h 20.9 km/h 39% 0 mm 0.0 W/m2
21:06 22.5 °C 7.5 °C 1021.6 hPa SE 1.4 km/h 12.9 km/h 38% 0 mm 0.0 W/m2
21:12 22.6 °C 7.6 °C 1021.6 hPa SE 11.1 km/h 17.7 km/h 38% 0 mm 0.0 W/m2
21:18 22.7 °C 7.6 °C 1021.9 hPa South 1.4 km/h 11.3 km/h 38% 0 mm 0.0 W/m2
21:23 22.7 °C 7.6 °C 1021.9 hPa Calm   8 km/h 38% 0 mm 0.0 W/m2
21:28 22.5 °C 9.6 °C 1021.2 hPa ESE 4.7 km/h 12.9 km/h 44% 0 mm 0.0 W/m2
21:35 22.2 °C 8.7 °C 1021.2 hPa ENE 4.7 km/h 6.4 km/h 42% 0 mm 0.0 W/m2
21:41 22 °C 7.8 °C 1021.2 hPa SE 6.4 km/h 14.5 km/h 40% 0 mm 0.0 W/m2
21:46 21.9 °C 7.3 °C 1021.2 hPa SE 1.4 km/h 11.3 km/h 39% 0 mm 0.0 W/m2
21:52 21.9 °C 6.9 °C 1020.9 hPa SSE 11.1 km/h 16.1 km/h 38% 0 mm 0.0 W/m2
21:57 21.9 °C 6.5 °C 1020.9 hPa ESE 11.1 km/h 19.3 km/h 37% 0 mm 0.0 W/m2
22:02 22 °C 7 °C 1020.9 hPa ESE 7.9 km/h 14.5 km/h 38% 0 mm 0.0 W/m2
22:07 21.9 °C 6.9 °C 1020.9 hPa ESE 3.2 km/h 9.7 km/h 38% 0 mm 0.0 W/m2
22:12 22 °C 7 °C 1020.9 hPa ESE 9.7 km/h 12.9 km/h 38% 0 mm 0.0 W/m2
22:17 22 °C 7 °C 1021.2 hPa SE 7.9 km/h 16.1 km/h 38% 0 mm 0.0 W/m2
22:22 22 °C 7 °C 1020.9 hPa ESE 4.7 km/h 14.5 km/h 38% 0 mm 0.0 W/m2
22:27 22 °C 6.6 °C 1020.9 hPa SE 11.1 km/h 12.9 km/h 37% 0 mm 0.0 W/m2
22:28 22 °C 6.6 °C 1020.9 hPa SSE 6.4 km/h 12.9 km/h 37% 0 mm 0.0 W/m2
22:32 22.1 °C 6.7 °C 1020.9 hPa ESE 7.9 km/h 16.1 km/h 37% 0 mm 0.0 W/m2
22:33 22.1 °C 6.7 °C 1020.9 hPa SE 4.7 km/h 16.1 km/h 37% 0 mm 0.0 W/m2
22:38 22.1 °C 6.7 °C 1021.2 hPa SE 1.4 km/h 8 km/h 37% 0 mm 0.0 W/m2
22:44 22 °C 6.6 °C 1021.2 hPa Calm   4.8 km/h 37% 0 mm 0.0 W/m2
22:52 21.9 °C 6.5 °C 1021.2 hPa SE 1.4 km/h 1.6 km/h 37% 0 mm 0.0 W/m2
22:53 21.9 °C 6.5 °C 1021.2 hPa SE 1.4 km/h 3.2 km/h 37% 0 mm 0.0 W/m2
22:58 21.8 °C 6.5 °C 1020.9 hPa SE 1.4 km/h 4.8 km/h 37% 0 mm 0.0 W/m2
23:04 21.7 °C 6.4 °C 1020.9 hPa NE 1.4 km/h 3.2 km/h 37% 0 mm 0.0 W/m2
23:09 21.5 °C 6.2 °C 1021.2 hPa NE 1.4 km/h 3.2 km/h 37% 0 mm 0.0 W/m2
23:14 21.4 °C 6.5 °C 1021.2 hPa NNE 1.4 km/h 3.2 km/h 38% 0 mm 0.0 W/m2
23:19 21.2 °C 6.7 °C 1021.2 hPa Calm     39% 0 mm 0.0 W/m2
23:26 21.1 °C 7 °C 1021.2 hPa Calm     40% 0 mm 0.0 W/m2
23:31 20.9 °C 6.8 °C 1021.2 hPa Calm     40% 0 mm 0.0 W/m2
23:38 20.7 °C 7 °C 1021.2 hPa Calm     41% 0 mm 0.0 W/m2
23:43 20.5 °C 7.1 °C 1021.2 hPa Calm   1.6 km/h 42% 0 mm 0.0 W/m2
23:48 20.4 °C 7.1 °C 1021.2 hPa Calm     42% 0 mm 0.0 W/m2
23:54 20.2 °C 7.2 °C 1021.2 hPa Calm     43% 0 mm 0.0 W/m2
23:59 19.9 °C 7.3 °C 1021.2 hPa Calm     44% 0 mm 0.0 W/m2
Olympia, Windhoek, Namibia
Compliments of Weather Underground - 3.5 mb